Time,TemperatureF,DewpointF,PressureIn,WindDirection,WindDirectionDegrees,WindSpeedMPH,WindSpeedGustMPH,Humidity,HourlyPrecipIn,Conditions,Clouds,dailyrainin,SoftwareType,DateUTC
2013-07-05 00:00:00,63.1,62.2,30.04,SW,221,0.0,0.0,97,0.00,,BKN220,0.00,VWS V14.00,2013-07-05 04:00:00,
2013-07-05 00:01:00,63.1,62.2,30.04,SW,221,0.0,0.0,97,0.00,,BKN220,0.00,VWS V14.00,2013-07-05 04:01:00,
2013-07-05 00:02:00,63.1,62.2,30.04,SW,221,0.0,0.0,97,0.00,,BKN220,0.00,VWS V14.00,2013-07-05 04:02:00,
2013-07-05 00:07:00,63.1,62.2,30.04,SW,221,0.0,0.0,97,0.00,,BKN220,0.00,VWS V14.00,2013-07-05 04:07:00,
2013-07-05 00:12:00,62.9,62.0,30.04,SW,221,0.0,0.0,97,0.00,,BKN220,0.00,VWS V14.00,2013-07-05 04:12:00,
2013-07-05 00:17:00,62.8,61.9,30.04,SW,221,0.0,0.0,97,0.00,,BKN220,0.00,VWS V14.00,2013-07-05 04:17:00,
2013-07-05 00:22:00,62.9,62.0,30.04,SW,221,0.0,0.0,97,0.00,,BKN220,0.00,VWS V14.00,2013-07-05 04:22:00,
2013-07-05 00:27:00,62.9,62.0,30.03,SW,221,0.0,0.0,97,0.00,,BKN220,0.00,VWS V14.00,2013-07-05 04:27:00,
2013-07-05 00:30:00,64.1,62.9,30.04,SW,221,0.0,0.0,96,0.00,,OVC120,0.00,VWS V14.00,2013-07-05 04:30:00,
2013-07-05 00:32:00,62.9,62.0,30.04,SW,221,0.0,0.0,97,0.00,,BKN220,0.00,VWS V14.00,2013-07-05 04:32:00,
2013-07-05 00:37:00,62.8,61.9,30.03,SW,221,0.0,0.0,97,0.00,,BKN220,0.00,VWS V14.00,2013-07-05 04:37:00,
2013-07-05 00:42:00,62.8,61.9,30.03,SW,221,0.0,0.0,97,0.00,,BKN220,0.00,VWS V14.00,2013-07-05 04:42:00,
2013-07-05 00:47:00,62.7,61.8,30.03,SW,221,0.0,0.0,97,0.00,,BKN220,0.00,VWS V14.00,2013-07-05 04:47:00,
2013-07-05 00:52:00,62.5,61.6,30.03,SW,221,0.0,0.0,97,0.00,,BKN220,0.00,VWS V14.00,2013-07-05 04:52:00,
2013-07-05 00:57:00,62.5,61.6,30.03,SW,221,0.0,0.0,97,0.00,,BKN220,0.00,VWS V14.00,2013-07-05 04:57:00,
2013-07-05 01:00:00,63.1,62.2,30.04,SW,221,0.0,1.0,97,0.00,,OVC120,0.00,VWS V14.00,2013-07-05 05:00:00,
2013-07-05 01:02:00,62.4,61.5,30.03,SW,221,0.0,0.0,97,0.00,,,0.00,VWS V14.00,2013-07-05 05:02:00,
2013-07-05 01:07:00,62.3,61.7,30.03,SW,221,0.0,0.0,98,0.00,,,0.00,VWS V14.00,2013-07-05 05:07:00,
2013-07-05 01:13:00,62.2,61.6,30.03,SW,221,0.0,0.0,98,0.00,,,0.00,VWS V14.00,2013-07-05 05:13:00,
2013-07-05 01:18:00,62.2,61.6,30.03,SW,221,0.0,0.0,98,0.00,,,0.00,VWS V14.00,2013-07-05 05:18:00,
2013-07-05 01:23:00,62.1,61.5,30.03,SW,221,0.0,0.0,98,0.00,,,0.00,VWS V14.00,2013-07-05 05:23:00,
2013-07-05 01:28:00,62.1,61.5,30.03,SW,221,0.0,0.0,98,0.00,,,0.00,VWS V14.00,2013-07-05 05:28:00,
2013-07-05 01:30:00,62.9,62.0,30.04,SW,221,0.0,0.0,97,0.00,,OVC120,0.00,VWS V14.00,2013-07-05 05:30:00,
2013-07-05 01:33:00,62.2,61.6,30.03,SW,221,0.0,0.0,98,0.00,,,0.00,VWS V14.00,2013-07-05 05:33:00,
2013-07-05 01:38:00,62.2,61.6,30.03,SW,221,0.0,0.0,98,0.00,,,0.00,VWS V14.00,2013-07-05 05:38:00,
2013-07-05 01:43:00,62.1,61.5,30.03,SW,221,0.0,0.0,98,0.00,,,0.00,VWS V14.00,2013-07-05 05:43:00,
2013-07-05 01:48:00,62.1,61.5,30.03,SW,221,0.0,0.0,98,0.00,,,0.00,VWS V14.00,2013-07-05 05:48:00,
2013-07-05 01:53:00,62.3,61.7,30.03,SW,221,0.0,0.0,98,0.00,,,0.00,VWS V14.00,2013-07-05 05:53:00,
2013-07-05 01:58:00,62.4,61.8,30.03,SW,221,0.0,0.0,98,0.00,,,0.00,VWS V14.00,2013-07-05 05:58:00,
2013-07-05 02:00:00,62.5,61.6,30.03,SW,221,0.0,0.0,97,0.00,,OVC120,0.00,VWS V14.00,2013-07-05 06:00:00,
2013-07-05 02:03:00,62.3,61.7,30.03,SW,221,0.0,0.0,98,0.00,,,0.00,VWS V14.00,2013-07-05 06:03:00,
2013-07-05 02:08:00,62.4,61.8,30.03,SW,221,0.0,0.0,98,0.00,,,0.00,VWS V14.00,2013-07-05 06:08:00,
2013-07-05 02:13:00,62.6,62.0,30.03,SW,221,0.0,0.0,98,0.00,,,0.00,VWS V14.00,2013-07-05 06:13:00,
2013-07-05 02:18:00,62.5,61.9,30.03,SW,221,0.0,0.0,98,0.00,,,0.00,VWS V14.00,2013-07-05 06:18:00,
2013-07-05 02:23:00,62.3,61.7,30.03,SW,221,0.0,0.0,98,0.00,,,0.00,VWS V14.00,2013-07-05 06:23:00,
2013-07-05 02:28:00,62.2,61.6,30.03,SW,221,0.0,0.0,98,0.00,,,0.00,VWS V14.00,2013-07-05 06:28:00,
2013-07-05 02:30:00,62.1,61.5,30.03,SW,221,0.0,0.0,98,0.00,,OVC120,0.00,VWS V14.00,2013-07-05 06:30:00,
2013-07-05 02:33:00,62.0,61.4,30.03,SW,221,0.0,0.0,98,0.00,,,0.00,VWS V14.00,2013-07-05 06:33:00,
2013-07-05 02:38:00,62.0,61.4,30.03,SW,221,0.0,0.0,98,0.00,,,0.00,VWS V14.00,2013-07-05 06:38:00,
2013-07-05 02:43:00,62.0,61.4,30.03,SW,221,0.0,0.0,98,0.00,,,0.00,VWS V14.00,2013-07-05 06:43:00,
2013-07-05 02:48:00,62.1,61.5,30.03,SW,221,0.0,0.0,98,0.00,,,0.00,VWS V14.00,2013-07-05 06:48:00,
2013-07-05 02:53:00,62.1,61.5,30.03,SW,221,0.0,0.0,98,0.00,,,0.00,VWS V14.00,2013-07-05 06:53:00,
2013-07-05 02:58:00,62.0,61.4,30.03,SW,221,0.0,0.0,98,0.00,,,0.00,VWS V14.00,2013-07-05 06:58:00,
2013-07-05 03:00:00,62.4,61.8,30.03,SW,221,0.0,0.0,98,0.00,,OVC120,0.00,VWS V14.00,2013-07-05 07:00:00,
2013-07-05 03:03:00,61.8,61.2,30.02,SW,221,0.0,0.0,98,0.00,,,0.00,VWS V14.00,2013-07-05 07:03:00,
2013-07-05 03:08:00,62.0,61.4,30.02,SW,221,0.0,0.0,98,0.00,,,0.00,VWS V14.00,2013-07-05 07:08:00,
2013-07-05 03:14:00,61.8,61.5,30.02,SW,221,0.0,0.0,99,0.00,,,0.00,VWS V14.00,2013-07-05 07:14:00,
2013-07-05 03:19:00,61.8,61.5,30.02,SW,221,0.0,0.0,99,0.00,,,0.00,VWS V14.00,2013-07-05 07:19:00,
2013-07-05 03:24:00,61.7,61.4,30.02,SW,221,0.0,0.0,99,0.00,,,0.00,VWS V14.00,2013-07-05 07:24:00,
2013-07-05 03:29:00,61.7,61.4,30.02,SW,221,0.0,0.0,99,0.00,,,0.00,VWS V14.00,2013-07-05 07:29:00,
2013-07-05 03:30:00,62.1,61.5,30.03,SW,221,0.0,0.0,98,0.00,,OVC120,0.00,VWS V14.00,2013-07-05 07:30:00,
2013-07-05 03:34:00,61.7,61.4,30.02,SW,221,0.0,0.0,99,0.00,,,0.00,VWS V14.00,2013-07-05 07:34:00,
2013-07-05 03:39:00,61.7,61.4,30.02,SW,221,0.0,0.0,99,0.00,,,0.00,VWS V14.00,2013-07-05 07:39:00,
2013-07-05 03:44:00,61.6,61.3,30.02,SW,221,0.0,0.0,99,0.00,,,0.00,VWS V14.00,2013-07-05 07:44:00,
2013-07-05 03:49:00,61.7,61.4,30.03,SW,221,0.0,0.0,99,0.00,,,0.00,VWS V14.00,2013-07-05 07:49:00,
2013-07-05 03:54:00,61.8,61.5,30.02,SW,221,0.0,0.0,99,0.00,,,0.00,VWS V14.00,2013-07-05 07:54:00,
2013-07-05 03:59:00,61.9,61.6,30.03,SW,221,0.0,0.0,99,0.00,,,0.00,VWS V14.00,2013-07-05 07:59:00,
2013-07-05 04:00:00,61.9,61.3,30.03,SW,221,0.0,0.0,98,0.00,,OVC120,0.00,VWS V14.00,2013-07-05 08:00:00,
2013-07-05 04:04:00,61.9,61.6,30.02,SW,221,0.0,0.0,99,0.00,,,0.00,VWS V14.00,2013-07-05 08:04:00,
2013-07-05 04:09:00,61.7,61.4,30.02,SW,221,0.0,0.0,99,0.00,,,0.00,VWS V14.00,2013-07-05 08:09:00,
2013-07-05 04:14:00,61.6,61.3,30.02,SW,221,0.0,0.0,99,0.00,,,0.00,VWS V14.00,2013-07-05 08:14:00,
2013-07-05 04:19:00,61.5,61.2,30.02,SW,221,0.0,0.0,99,0.00,,,0.00,VWS V14.00,2013-07-05 08:19:00,
2013-07-05 04:24:00,61.4,61.1,30.02,SW,221,0.0,0.0,99,0.00,,,0.00,VWS V14.00,2013-07-05 08:24:00,
2013-07-05 04:29:00,61.4,61.1,30.03,SW,221,0.0,0.0,99,0.00,,,0.00,VWS V14.00,2013-07-05 08:29:00,
2013-07-05 04:30:00,61.6,61.3,30.02,SW,221,0.0,0.0,99,0.00,,OVC120,0.00,VWS V14.00,2013-07-05 08:30:00,
2013-07-05 04:34:00,61.4,61.1,30.03,SW,221,0.0,0.0,99,0.00,,,0.00,VWS V14.00,2013-07-05 08:34:00,
2013-07-05 04:39:00,61.4,61.1,30.02,SW,221,0.0,0.0,99,0.00,,,0.00,VWS V14.00,2013-07-05 08:39:00,
2013-07-05 04:44:00,61.4,61.1,30.02,SW,221,0.0,0.0,99,0.00,,,0.00,VWS V14.00,2013-07-05 08:44:00,
2013-07-05 04:49:00,61.4,61.1,30.02,SW,221,0.0,0.0,99,0.00,,,0.00,VWS V14.00,2013-07-05 08:49:00,
2013-07-05 04:54:00,61.5,61.2,30.03,SW,221,0.0,0.0,99,0.00,,,0.00,VWS V14.00,2013-07-05 08:54:00,
2013-07-05 04:59:00,61.5,61.2,30.02,SW,221,0.0,0.0,99,0.00,,,0.00,VWS V14.00,2013-07-05 08:59:00,
2013-07-05 05:00:00,61.9,61.6,30.03,SW,221,0.0,0.0,99,0.00,,OVC120,0.00,VWS V14.00,2013-07-05 09:00:00,
2013-07-05 05:04:00,61.6,61.3,30.02,SW,221,0.0,0.0,99,0.00,,,0.00,VWS V14.00,2013-07-05 09:04:00,
2013-07-05 05:10:00,61.6,61.3,30.02,SW,221,0.0,0.0,99,0.00,,,0.00,VWS V14.00,2013-07-05 09:10:00,
2013-07-05 05:15:00,61.6,61.3,30.03,SW,221,0.0,0.0,99,0.00,,,0.00,VWS V14.00,2013-07-05 09:15:00,
2013-07-05 05:20:00,61.6,61.3,30.03,SW,221,0.0,0.0,99,0.00,,,0.00,VWS V14.00,2013-07-05 09:20:00,
2013-07-05 05:25:00,61.5,61.2,30.03,SW,221,0.0,0.0,99,0.00,,,0.00,VWS V14.00,2013-07-05 09:25:00,
2013-07-05 05:30:00,61.4,61.1,30.03,SW,221,0.0,0.0,99,0.00,,OVC120,0.00,VWS V14.00,2013-07-05 09:30:00,
2013-07-05 05:31:00,61.4,61.1,30.03,SW,221,0.0,0.0,99,0.00,,,0.00,VWS V14.00,2013-07-05 09:31:00,
2013-07-05 05:36:00,61.4,61.1,30.03,SW,221,0.0,0.0,99,0.00,,,0.00,VWS V14.00,2013-07-05 09:36:00,
2013-07-05 05:41:00,61.6,61.3,30.03,SW,221,0.0,0.0,99,0.00,,,0.00,VWS V14.00,2013-07-05 09:41:00,
2013-07-05 05:47:00,61.6,61.3,30.03,SW,221,0.0,0.0,99,0.00,,,0.00,VWS V14.00,2013-07-05 09:47:00,
2013-07-05 05:52:00,61.7,61.4,30.03,SW,221,0.0,0.0,99,0.00,,,0.00,VWS V14.00,2013-07-05 09:52:00,
2013-07-05 05:57:00,61.6,61.3,30.03,SW,221,0.0,0.0,99,0.00,,,0.00,VWS V14.00,2013-07-05 09:57:00,
2013-07-05 06:00:00,61.5,61.2,30.02,SW,221,0.0,0.0,99,0.00,,OVC120,0.00,VWS V14.00,2013-07-05 10:00:00,
2013-07-05 06:02:00,61.5,61.2,30.03,SW,221,0.0,0.0,99,0.00,,,0.00,VWS V14.00,2013-07-05 10:02:00,
2013-07-05 06:08:00,61.4,61.1,30.03,SW,228,0.0,0.0,99,0.00,,,0.00,VWS V14.00,2013-07-05 10:08:00,
2013-07-05 06:13:00,61.2,60.9,30.03,SW,227,0.0,0.0,99,0.00,,,0.00,VWS V14.00,2013-07-05 10:13:00,
2013-07-05 06:18:00,61.1,60.8,30.04,SW,227,0.0,0.0,99,0.00,,,0.00,VWS V14.00,2013-07-05 10:18:00,
2013-07-05 06:23:00,60.9,60.6,30.04,SW,228,0.0,0.0,99,0.00,,,0.00,VWS V14.00,2013-07-05 10:23:00,
2013-07-05 06:28:00,60.9,60.6,30.04,SW,228,0.0,0.0,99,0.00,,,0.00,VWS V14.00,2013-07-05 10:28:00,
2013-07-05 06:30:00,61.4,61.1,30.03,SW,221,0.0,0.0,99,0.00,,OVC120,0.00,VWS V14.00,2013-07-05 10:30:00,
2013-07-05 06:34:00,61.1,60.8,30.04,SW,228,0.0,0.0,99,0.00,,,0.00,VWS V14.00,2013-07-05 10:34:00,
2013-07-05 06:39:00,61.2,60.9,30.03,SW,228,0.0,0.0,99,0.00,,,0.00,VWS V14.00,2013-07-05 10:39:00,
2013-07-05 06:45:00,61.1,60.8,30.04,SW,228,0.0,0.0,99,0.00,,,0.00,VWS V14.00,2013-07-05 10:45:00,
2013-07-05 06:50:00,61.3,61.0,30.04,SW,228,0.0,0.0,99,0.00,,,0.00,VWS V14.00,2013-07-05 10:50:00,
2013-07-05 06:55:00,61.4,61.1,30.04,SW,227,0.0,0.0,99,0.00,,,0.00,VWS V14.00,2013-07-05 10:55:00,
2013-07-05 07:00:00,61.7,61.4,30.04,SW,228,0.0,0.0,99,0.00,,,0.00,VWS V14.00,2013-07-05 11:00:00,
2013-07-05 07:05:00,62.1,61.8,30.04,SW,228,0.0,0.0,99,0.00,,,0.00,VWS V14.00,2013-07-05 11:05:00,
2013-07-05 07:10:00,62.7,62.7,30.04,SW,228,0.0,0.0,100,0.00,,,0.00,VWS V14.00,2013-07-05 11:10:00,
2013-07-05 07:16:00,63.4,63.4,30.04,SW,228,0.0,0.0,100,0.00,,,0.00,VWS V14.00,2013-07-05 11:16:00,
2013-07-05 07:21:00,63.9,63.9,30.04,SW,228,0.0,0.0,100,0.00,,,0.00,VWS V14.00,2013-07-05 11:21:00,
2013-07-05 07:26:00,63.9,63.9,30.04,SW,228,0.0,0.0,100,0.00,,,0.00,VWS V14.00,2013-07-05 11:26:00,
2013-07-05 07:30:00,61.0,60.7,30.04,SW,227,0.0,0.0,99,0.00,,OVC120,0.00,VWS V14.00,2013-07-05 11:30:00,
2013-07-05 07:31:00,64.0,64.0,30.04,SW,227,0.0,0.0,100,0.00,,,0.00,VWS V14.00,2013-07-05 11:31:00,
2013-07-05 07:37:00,64.2,64.2,30.04,SW,227,0.0,0.0,100,0.00,,,0.00,VWS V14.00,2013-07-05 11:37:00,
2013-07-05 07:42:00,64.5,64.5,30.05,SW,227,0.0,0.0,100,0.00,,,0.00,VWS V14.00,2013-07-05 11:42:00,
2013-07-05 07:48:00,65.0,65.0,30.04,SW,228,0.0,0.0,100,0.00,,,0.00,VWS V14.00,2013-07-05 11:48:00,
2013-07-05 07:53:00,65.1,65.1,30.04,SW,228,0.0,0.0,100,0.00,,,0.00,VWS V14.00,2013-07-05 11:53:00,
2013-07-05 07:58:00,65.2,65.2,30.04,SW,228,0.0,0.0,100,0.00,,,0.00,VWS V14.00,2013-07-05 11:58:00,
2013-07-05 08:00:00,61.6,61.3,30.04,SW,228,0.0,0.0,99,0.00,,OVC120,0.00,VWS V14.00,2013-07-05 12:00:00,
2013-07-05 08:03:00,65.7,65.7,30.04,SW,228,0.0,0.0,100,0.00,,,0.00,VWS V14.00,2013-07-05 12:03:00,
2013-07-05 08:08:00,66.0,66.0,30.05,SW,228,0.0,2.0,100,0.00,,,0.00,VWS V14.00,2013-07-05 12:08:00,
2013-07-05 08:13:00,66.4,66.4,30.05,SW,228,0.0,2.0,100,0.00,,,0.00,VWS V14.00,2013-07-05 12:13:00,
2013-07-05 08:18:00,66.5,66.5,30.05,SW,228,0.0,2.0,100,0.00,,,0.00,VWS V14.00,2013-07-05 12:18:00,
2013-07-05 08:24:00,66.9,66.9,30.05,SW,228,0.0,2.0,100,0.00,,,0.00,VWS V14.00,2013-07-05 12:24:00,
2013-07-05 08:29:00,67.6,67.6,30.05,SW,228,0.0,2.0,100,0.00,,,0.00,VWS V14.00,2013-07-05 12:29:00,
2013-07-05 08:30:00,63.9,63.9,30.04,SW,228,0.0,0.0,100,0.00,,OVC120,0.00,VWS V14.00,2013-07-05 12:30:00,
2013-07-05 08:34:00,68.1,68.1,30.05,SW,228,0.0,1.0,100,0.00,,,0.00,VWS V14.00,2013-07-05 12:34:00,
2013-07-05 08:39:00,68.5,68.2,30.05,SW,228,0.0,2.0,99,0.00,,,0.00,VWS V14.00,2013-07-05 12:39:00,
2013-07-05 08:44:00,69.0,68.7,30.05,SW,228,0.0,2.0,99,0.00,,,0.00,VWS V14.00,2013-07-05 12:44:00,
2013-07-05 08:49:00,69.7,69.4,30.05,WNW,301,0.0,2.0,99,0.00,,,0.00,VWS V14.00,2013-07-05 12:49:00,
2013-07-05 08:54:00,70.3,69.7,30.05,WNW,283,0.0,3.0,98,0.00,,,0.00,VWS V14.00,2013-07-05 12:54:00,
2013-07-05 09:00:00,71.0,69.5,30.05,SSE,148,0.0,3.0,95,0.00,,,0.00,VWS V14.00,2013-07-05 13:00:00,
2013-07-05 09:05:00,71.5,69.1,30.05,WSW,238,0.0,5.0,92,0.00,,,0.00,VWS V14.00,2013-07-05 13:05:00,
2013-07-05 09:10:00,72.0,68.3,30.05,SW,227,0.0,5.0,88,0.00,,,0.00,VWS V14.00,2013-07-05 13:10:00,
2013-07-05 09:15:00,72.3,67.9,30.05,SW,227,3.0,5.0,86,0.00,,,0.00,VWS V14.00,2013-07-05 13:15:00,
2013-07-05 09:20:00,72.8,67.7,30.06,SW,230,1.0,5.0,84,0.00,,,0.00,VWS V14.00,2013-07-05 13:20:00,
2013-07-05 09:25:00,73.0,67.2,30.06,SW,230,0.0,5.0,82,0.00,,,0.00,VWS V14.00,2013-07-05 13:25:00,
2013-07-05 09:30:00,73.0,67.2,30.06,SW,230,0.0,0.0,82,0.00,,,0.00,VWS V14.00,2013-07-05 13:30:00,
2013-07-05 09:36:00,73.0,67.5,30.06,SW,230,0.0,2.0,83,0.00,,,0.00,VWS V14.00,2013-07-05 13:36:00,
2013-07-05 09:41:00,73.0,67.2,30.06,SW,230,0.0,2.0,82,0.00,,,0.00,VWS V14.00,2013-07-05 13:41:00,
2013-07-05 09:46:00,73.5,68.4,30.06,SW,226,0.0,3.0,84,0.00,,,0.00,VWS V14.00,2013-07-05 13:46:00,
2013-07-05 09:51:00,73.7,67.2,30.06,SW,226,0.0,4.0,80,0.00,,,0.00,VWS V14.00,2013-07-05 13:51:00,
2013-07-05 09:57:00,73.5,67.0,30.06,SW,227,0.0,4.0,80,0.00,,,0.00,VWS V14.00,2013-07-05 13:57:00,
2013-07-05 10:00:00,71.0,69.5,30.05,SSE,148,0.0,3.0,95,0.00,,OVC120,0.00,VWS V14.00,2013-07-05 14:00:00,
2013-07-05 10:02:00,73.3,66.8,30.06,SW,227,0.0,0.0,80,0.00,,BKN250,0.00,VWS V14.00,2013-07-05 14:02:00,
2013-07-05 10:07:00,73.3,67.1,30.06,SW,227,0.0,2.0,81,0.00,,BKN250,0.00,VWS V14.00,2013-07-05 14:07:00,
2013-07-05 10:12:00,73.3,67.5,30.06,SSW,192,2.0,2.0,82,0.00,,BKN250,0.00,VWS V14.00,2013-07-05 14:12:00,
2013-07-05 10:17:00,73.1,67.3,30.06,SSW,192,0.0,3.0,82,0.00,,BKN250,0.00,VWS V14.00,2013-07-05 14:17:00,
2013-07-05 10:22:00,72.8,66.6,30.06,SSW,196,0.0,4.0,81,0.00,,BKN250,0.00,VWS V14.00,2013-07-05 14:22:00,
2013-07-05 10:28:00,72.8,67.3,30.06,SSW,196,3.0,4.0,83,0.00,,BKN250,0.00,VWS V14.00,2013-07-05 14:28:00,
2013-07-05 10:30:00,73.0,67.2,30.06,SW,230,0.0,5.0,82,0.00,,OVC120,0.00,VWS V14.00,2013-07-05 14:30:00,
2013-07-05 10:33:00,72.8,67.0,30.06,NE,53,0.0,0.0,82,0.00,,BKN250,0.00,VWS V14.00,2013-07-05 14:33:00,
2013-07-05 10:38:00,73.3,66.8,30.06,SSE,148,0.0,4.0,80,0.00,,BKN250,0.00,VWS V14.00,2013-07-05 14:38:00,
2013-07-05 10:43:00,73.8,67.2,30.06,SSE,148,0.0,4.0,80,0.00,,BKN250,0.00,VWS V14.00,2013-07-05 14:43:00,
2013-07-05 10:48:00,74.3,67.0,30.06,SSE,152,1.0,4.0,78,0.00,,BKN250,0.00,VWS V14.00,2013-07-05 14:48:00,
2013-07-05 10:54:00,74.4,66.3,30.06,South,171,1.0,5.0,76,0.00,,BKN250,0.00,VWS V14.00,2013-07-05 14:54:00,
2013-07-05 10:59:00,74.6,66.5,30.06,South,175,2.0,5.0,76,0.00,,BKN250,0.00,VWS V14.00,2013-07-05 14:59:00,
2013-07-05 11:00:00,73.4,66.5,30.06,SW,227,0.0,4.0,79,0.00,,OVC120,0.00,VWS V14.00,2013-07-05 15:00:00,
2013-07-05 11:04:00,75.1,66.2,30.06,South,178,0.0,3.0,74,0.00,,BKN250,0.00,VWS V14.00,2013-07-05 15:04:00,
2013-07-05 11:09:00,76.1,68.0,30.06,South,182,1.0,3.0,76,0.00,,BKN250,0.00,VWS V14.00,2013-07-05 15:09:00,
2013-07-05 11:14:00,76.7,67.0,30.06,South,182,0.0,3.0,72,0.00,,BKN250,0.00,VWS V14.00,2013-07-05 15:14:00,
2013-07-05 11:19:00,77.4,67.3,30.06,South,184,0.0,3.0,71,0.00,,BKN250,0.00,VWS V14.00,2013-07-05 15:19:00,
2013-07-05 11:24:00,78.1,68.3,30.06,South,184,3.0,4.0,72,0.00,,BKN250,0.00,VWS V14.00,2013-07-05 15:24:00,
2013-07-05 11:29:00,78.5,67.9,30.06,South,184,0.0,4.0,70,0.00,,BKN250,0.00,VWS V14.00,2013-07-05 15:29:00,
2013-07-05 11:30:00,72.7,66.2,30.06,SSW,196,0.0,4.0,80,0.00,,OVC120,0.00,VWS V14.00,2013-07-05 15:30:00,
2013-07-05 11:34:00,78.7,67.7,30.06,SSW,198,3.0,6.0,69,0.00,,BKN250,0.00,VWS V14.00,2013-07-05 15:34:00,
2013-07-05 11:39:00,78.2,66.8,30.06,SSW,201,3.0,6.0,68,0.00,,BKN250,0.00,VWS V14.00,2013-07-05 15:39:00,
2013-07-05 11:44:00,78.1,68.3,30.06,SSW,202,2.0,6.0,72,0.00,,BKN250,0.00,VWS V14.00,2013-07-05 15:44:00,
2013-07-05 11:49:00,78.5,66.6,30.06,SSW,202,0.0,6.0,67,0.00,,BKN250,0.00,VWS V14.00,2013-07-05 15:49:00,
2013-07-05 11:51:00,78.6,66.7,30.06,SSW,202,0.0,6.0,67,0.00,,BKN250,0.00,VWS V14.00,2013-07-05 15:51:00,
2013-07-05 11:56:00,78.8,66.9,30.06,SSW,200,3.0,6.0,67,0.00,,BKN250,0.00,VWS V14.00,2013-07-05 15:56:00,
2013-07-05 12:00:00,74.6,66.2,30.06,South,178,2.0,5.0,75,0.00,,OVC120,0.00,VWS V14.00,2013-07-05 16:00:00,
2013-07-05 12:01:00,78.6,67.2,30.06,SSW,194,1.0,4.0,68,0.00,,BKN250,0.00,VWS V14.00,2013-07-05 16:01:00,
2013-07-05 12:06:00,78.7,67.7,30.06,SSW,193,1.0,6.0,69,0.00,,BKN250,0.00,VWS V14.00,2013-07-05 16:06:00,
2013-07-05 12:11:00,78.7,67.7,30.06,SSW,194,0.0,6.0,69,0.00,,BKN250,0.00,VWS V14.00,2013-07-05 16:11:00,
2013-07-05 12:16:00,78.8,68.2,30.06,SSW,193,0.0,6.0,70,0.00,,BKN250,0.00,VWS V14.00,2013-07-05 16:16:00,
2013-07-05 12:21:00,79.0,67.6,30.05,SSW,200,1.0,7.0,68,0.00,,BKN250,0.00,VWS V14.00,2013-07-05 16:21:00,
2013-07-05 12:26:00,79.4,70.0,30.05,SSW,201,0.0,7.0,73,0.00,,BKN250,0.00,VWS V14.00,2013-07-05 16:26:00,
2013-07-05 12:30:00,78.5,67.9,30.06,South,184,0.0,4.0,70,0.00,,OVC120,0.00,VWS V14.00,2013-07-05 16:30:00,
2013-07-05 12:31:00,80.0,69.3,30.05,SSW,201,0.0,0.0,70,0.00,,BKN250,0.00,VWS V14.00,2013-07-05 16:31:00,
2013-07-05 12:36:00,80.4,68.9,30.05,SSW,205,0.0,1.0,68,0.00,,BKN250,0.00,VWS V14.00,2013-07-05 16:36:00,
2013-07-05 12:41:00,80.6,68.6,30.05,SSW,202,0.0,4.0,67,0.00,,BKN250,0.00,VWS V14.00,2013-07-05 16:41:00,
2013-07-05 12:46:00,80.6,67.8,30.05,SSW,201,0.0,5.0,65,0.00,,BKN250,0.00,VWS V14.00,2013-07-05 16:46:00,
2013-07-05 12:51:00,80.7,66.5,30.05,SSW,199,0.0,5.0,62,0.00,,BKN250,0.00,VWS V14.00,2013-07-05 16:51:00,
2013-07-05 12:57:00,80.3,67.0,30.05,SSW,210,2.0,7.0,64,0.00,,BKN250,0.00,VWS V14.00,2013-07-05 16:57:00,
2013-07-05 13:00:00,78.7,66.0,30.06,SSW,194,3.0,6.0,65,0.00,,OVC120,0.00,VWS V14.00,2013-07-05 17:00:00,
2013-07-05 13:02:00,79.4,66.6,30.05,SSW,211,3.0,4.0,65,0.00,,BKN250,0.00,VWS V14.00,2013-07-05 17:02:00,
2013-07-05 13:07:00,79.4,67.1,30.05,SSW,211,0.0,4.0,66,0.00,,BKN250,0.00,VWS V14.00,2013-07-05 17:07:00,
2013-07-05 13:12:00,79.7,67.3,30.04,SSW,200,0.0,4.0,66,0.00,,BKN250,0.00,VWS V14.00,2013-07-05 17:12:00,
2013-07-05 13:17:00,79.9,66.7,30.04,SSW,200,0.0,4.0,64,0.00,,BKN250,0.00,VWS V14.00,2013-07-05 17:17:00,
2013-07-05 13:22:00,79.6,66.8,30.04,SSW,200,0.0,4.0,65,0.00,,BKN250,0.00,VWS V14.00,2013-07-05 17:22:00,
2013-07-05 13:27:00,79.4,67.1,30.04,SSW,200,0.0,4.0,66,0.00,,BKN250,0.00,VWS V14.00,2013-07-05 17:27:00,
2013-07-05 13:30:00,79.8,68.7,30.05,SSW,201,0.0,7.0,69,0.00,,OVC120,0.00,VWS V14.00,2013-07-05 17:30:00,
2013-07-05 13:32:00,79.3,68.3,30.04,SSW,200,0.0,0.0,69,0.00,,BKN250,0.00,VWS V14.00,2013-07-05 17:32:00,
2013-07-05 13:37:00,78.9,68.7,30.04,SSW,200,0.0,1.0,71,0.00,,BKN250,0.00,VWS V14.00,2013-07-05 17:37:00,
2013-07-05 13:42:00,79.1,68.9,30.04,SSW,200,0.0,1.0,71,0.00,,BKN250,0.00,VWS V14.00,2013-07-05 17:42:00,
2013-07-05 13:47:00,80.0,67.6,30.04,SSW,201,2.0,3.0,66,0.00,,BKN250,0.00,VWS V14.00,2013-07-05 17:47:00,
2013-07-05 13:52:00,80.2,67.8,30.04,SSW,192,2.0,5.0,66,0.00,,BKN250,0.00,VWS V14.00,2013-07-05 17:52:00,
2013-07-05 13:57:00,80.4,65.7,30.03,SSW,194,2.0,5.0,61,0.00,,BKN250,0.00,VWS V14.00,2013-07-05 17:57:00,
2013-07-05 13:58:00,80.5,67.2,30.03,SSW,194,0.0,5.0,64,0.00,,BKN250,0.00,VWS V14.00,2013-07-05 17:58:00,
2013-07-05 14:00:00,79.7,67.8,30.05,SW,217,1.0,7.0,67,0.00,,OVC120,0.00,VWS V14.00,2013-07-05 18:00:00,
2013-07-05 14:03:00,80.7,66.9,30.03,South,178,0.0,4.0,63,0.00,,SCT250,0.00,VWS V14.00,2013-07-05 18:03:00,
2013-07-05 14:08:00,81.1,67.3,30.03,SSW,207,4.0,6.0,63,0.00,,SCT250,0.00,VWS V14.00,2013-07-05 18:08:00,
2013-07-05 14:13:00,81.2,66.9,30.03,South,186,4.0,6.0,62,0.00,,SCT250,0.00,VWS V14.00,2013-07-05 18:13:00,
2013-07-05 14:19:00,80.8,68.4,30.03,SSW,194,4.0,6.0,66,0.00,,SCT250,0.00,VWS V14.00,2013-07-05 18:19:00,
2013-07-05 14:24:00,81.0,67.7,30.03,SSW,199,0.0,6.0,64,0.00,,SCT250,0.00,VWS V14.00,2013-07-05 18:24:00,
2013-07-05 14:29:00,81.1,66.9,30.03,SSW,199,0.0,6.0,62,0.00,,SCT250,0.00,VWS V14.00,2013-07-05 18:29:00,
2013-07-05 14:30:00,79.4,67.9,30.04,SSW,200,0.0,4.0,68,0.00,,OVC120,0.00,VWS V14.00,2013-07-05 18:30:00,
2013-07-05 14:34:00,80.7,66.0,30.03,SSW,198,1.0,4.0,61,0.00,,SCT250,0.00,VWS V14.00,2013-07-05 18:34:00,
2013-07-05 14:39:00,80.7,67.8,30.03,SSW,195,3.0,4.0,65,0.00,,SCT250,0.00,VWS V14.00,2013-07-05 18:39:00,
2013-07-05 14:44:00,80.9,67.1,30.03,SSW,195,0.0,4.0,63,0.00,,SCT250,0.00,VWS V14.00,2013-07-05 18:44:00,
2013-07-05 14:49:00,81.6,66.4,30.03,SSW,192,3.0,4.0,60,0.00,,SCT250,0.00,VWS V14.00,2013-07-05 18:49:00,
2013-07-05 14:54:00,81.8,66.1,30.03,South,184,3.0,7.0,59,0.00,,SCT250,0.00,VWS V14.00,2013-07-05 18:54:00,
2013-07-05 14:59:00,81.5,66.8,30.03,SSW,199,0.0,7.0,61,0.00,,SCT250,0.00,VWS V14.00,2013-07-05 18:59:00,
2013-07-05 15:00:00,80.6,66.8,30.03,South,178,3.0,5.0,63,0.00,,OVC120,0.00,VWS V14.00,2013-07-05 19:00:00,
2013-07-05 15:04:00,81.8,65.6,30.03,SSW,203,5.0,7.0,58,0.00,,BKN250,0.00,VWS V14.00,2013-07-05 19:04:00,
2013-07-05 15:09:00,81.9,67.1,30.03,SSW,199,5.0,7.0,61,0.00,,BKN250,0.00,VWS V14.00,2013-07-05 19:09:00,
2013-07-05 15:14:00,82.1,67.3,30.02,SSW,207,2.0,7.0,61,0.00,,BKN250,0.00,VWS V14.00,2013-07-05 19:14:00,
2013-07-05 15:19:00,82.3,66.1,30.02,SSW,199,0.0,7.0,58,0.00,,BKN250,0.00,VWS V14.00,2013-07-05 19:19:00,
2013-07-05 15:24:00,82.5,65.8,30.02,South,187,0.0,7.0,57,0.00,,BKN250,0.00,VWS V14.00,2013-07-05 19:24:00,
2013-07-05 15:29:00,82.6,68.3,30.02,South,171,1.0,7.0,62,0.00,,BKN250,0.00,VWS V14.00,2013-07-05 19:29:00,
2013-07-05 15:30:00,81.0,67.2,30.03,SSW,199,0.0,6.0,63,0.00,,OVC120,0.00,VWS V14.00,2013-07-05 19:30:00,
2013-07-05 15:34:00,82.9,70.4,30.02,SSW,194,1.0,6.0,66,0.00,,BKN250,0.00,VWS V14.00,2013-07-05 19:34:00,
2013-07-05 15:40:00,83.0,67.7,30.02,SSW,196,6.0,7.0,60,0.00,,BKN250,0.00,VWS V14.00,2013-07-05 19:40:00,
2013-07-05 15:44:00,82.4,67.1,30.01,South,191,5.0,9.0,60,0.00,,BKN250,0.00,VWS V14.00,2013-07-05 19:44:00,
2013-07-05 15:45:00,82.4,67.1,30.01,SSW,198,6.0,9.0,60,0.00,,BKN250,0.00,VWS V14.00,2013-07-05 19:45:00,
2013-07-05 15:50:00,81.0,65.3,30.02,SSW,194,3.0,9.0,59,0.00,,BKN250,0.00,VWS V14.00,2013-07-05 19:50:00,
2013-07-05 15:55:00,80.1,65.4,30.01,SSW,195,0.0,9.0,61,0.00,,BKN250,0.00,VWS V14.00,2013-07-05 19:55:00,
2013-07-05 16:00:00,80.0,66.7,30.01,SSW,206,0.0,9.0,64,0.00,,BKN250,0.00,VWS V14.00,2013-07-05 20:00:00,
2013-07-05 16:05:00,81.0,67.7,30.01,SSW,204,2.0,7.0,64,0.00,,BKN220,0.00,VWS V14.00,2013-07-05 20:05:00,
2013-07-05 16:10:00,81.6,66.4,30.01,South,183,3.0,7.0,60,0.00,,BKN220,0.00,VWS V14.00,2013-07-05 20:10:00,
2013-07-05 16:15:00,81.6,66.4,30.01,SSW,213,3.0,7.0,60,0.00,,BKN220,0.00,VWS V14.00,2013-07-05 20:15:00,
2013-07-05 16:20:00,80.9,66.7,30.01,South,179,0.0,7.0,62,0.00,,BKN220,0.00,VWS V14.00,2013-07-05 20:20:00,
2013-07-05 16:25:00,80.6,66.8,30.01,South,179,0.0,7.0,63,0.00,,BKN220,0.00,VWS V14.00,2013-07-05 20:25:00,
2013-07-05 16:30:00,82.6,68.3,30.02,South,171,0.0,7.0,62,0.00,,OVC120,0.00,VWS V14.00,2013-07-05 20:30:00,
2013-07-05 16:31:00,81.0,67.7,30.01,South,186,1.0,1.0,64,0.00,,BKN220,0.00,VWS V14.00,2013-07-05 20:31:00,
2013-07-05 16:36:00,81.8,67.1,30.00,SSW,203,3.0,6.0,61,0.00,,BKN220,0.00,VWS V14.00,2013-07-05 20:36:00,
2013-07-05 16:41:00,82.2,66.0,30.00,SSW,202,4.0,6.0,58,0.00,,BKN220,0.00,VWS V14.00,2013-07-05 20:41:00,
2013-07-05 16:46:00,82.6,67.3,30.00,SSW,202,0.0,6.0,60,0.00,,BKN220,0.00,VWS V14.00,2013-07-05 20:46:00,
2013-07-05 16:51:00,82.9,67.1,30.00,SSW,202,1.0,6.0,59,0.00,,BKN220,0.00,VWS V14.00,2013-07-05 20:51:00,
2013-07-05 16:56:00,83.1,67.3,30.00,SSW,205,0.0,6.0,59,0.00,,BKN220,0.00,VWS V14.00,2013-07-05 20:56:00,
2013-07-05 17:00:00,80.0,66.7,30.01,SSW,206,0.0,9.0,64,0.00,,OVC120,0.00,VWS V14.00,2013-07-05 21:00:00,
2013-07-05 17:01:00,82.9,66.6,30.00,SSW,210,2.0,5.0,58,0.00,,BKN220,0.00,VWS V14.00,2013-07-05 21:01:00,
2013-07-05 17:06:00,82.6,64.3,29.99,SSW,206,2.0,6.0,54,0.00,,BKN220,0.00,VWS V14.00,2013-07-05 21:06:00,
2013-07-05 17:11:00,82.7,67.9,29.99,SSW,206,1.0,6.0,61,0.00,,BKN220,0.00,VWS V14.00,2013-07-05 21:11:00,
2013-07-05 17:16:00,83.0,68.2,29.99,SSW,209,5.0,6.0,61,0.00,,BKN220,0.00,VWS V14.00,2013-07-05 21:16:00,
2013-07-05 17:21:00,82.3,65.1,29.99,SSW,200,1.0,8.0,56,0.00,,BKN220,0.00,VWS V14.00,2013-07-05 21:21:00,
2013-07-05 17:26:00,82.4,67.6,29.99,SW,217,3.0,8.0,61,0.00,,BKN220,0.00,VWS V14.00,2013-07-05 21:26:00,
2013-07-05 17:30:00,80.8,66.6,30.00,South,186,0.0,7.0,62,0.00,,OVC120,0.00,VWS V14.00,2013-07-05 21:30:00,
2013-07-05 17:31:00,81.9,64.7,29.99,SW,221,0.0,0.0,56,0.00,,BKN220,0.00,VWS V14.00,2013-07-05 21:31:00,
2013-07-05 17:36:00,81.6,66.4,29.99,SW,219,0.0,3.0,60,0.00,,BKN220,0.00,VWS V14.00,2013-07-05 21:36:00,
2013-07-05 17:41:00,81.8,67.1,29.99,SW,218,1.0,3.0,61,0.00,,BKN220,0.00,VWS V14.00,2013-07-05 21:41:00,
2013-07-05 17:46:00,82.3,69.4,29.99,SW,218,0.0,3.0,65,0.00,,BKN220,0.00,VWS V14.00,2013-07-05 21:46:00,
2013-07-05 17:51:00,82.7,68.4,29.99,SSW,205,0.0,4.0,62,0.00,,BKN220,0.00,VWS V14.00,2013-07-05 21:51:00,
2013-07-05 17:56:00,82.4,65.7,29.98,SSW,202,2.0,6.0,57,0.00,,BKN220,0.00,VWS V14.00,2013-07-05 21:56:00,
2013-07-05 18:00:00,82.9,65.6,30.00,SSW,202,2.0,6.0,56,0.00,,OVC120,0.00,VWS V14.00,2013-07-05 22:00:00,
2013-07-05 18:01:00,81.6,66.4,29.98,SSW,207,6.0,6.0,60,0.00,,BKN220,0.00,VWS V14.00,2013-07-05 22:01:00,
2013-07-05 18:06:00,81.6,65.4,29.99,SSW,207,0.0,6.0,58,0.00,,BKN220,0.00,VWS V14.00,2013-07-05 22:06:00,
2013-07-05 18:11:00,81.8,64.6,29.99,SSW,207,4.0,6.0,56,0.00,,BKN220,0.00,VWS V14.00,2013-07-05 22:11:00,
2013-07-05 18:16:00,81.8,65.1,29.99,SSW,192,5.0,7.0,57,0.00,,BKN220,0.00,VWS V14.00,2013-07-05 22:16:00,
2013-07-05 18:21:00,81.8,65.1,29.99,SSW,212,0.0,7.0,57,0.00,,BKN220,0.00,VWS V14.00,2013-07-05 22:21:00,
2013-07-05 18:23:00,81.8,63.5,29.99,SW,215,1.0,7.0,54,0.00,,BKN220,0.00,VWS V14.00,2013-07-05 22:23:00,
2013-07-05 18:28:00,81.7,64.5,29.99,South,189,6.0,8.0,56,0.00,,BKN220,0.00,VWS V14.00,2013-07-05 22:28:00,
2013-07-05 18:30:00,82.1,65.9,29.99,SW,221,0.0,8.0,58,0.00,,OVC120,0.00,VWS V14.00,2013-07-05 22:30:00,
2013-07-05 18:33:00,81.8,65.1,29.99,South,188,4.0,4.0,57,0.00,,BKN220,0.00,VWS V14.00,2013-07-05 22:33:00,
2013-07-05 18:38:00,82.0,64.8,29.98,SW,227,3.0,7.0,56,0.00,,BKN220,0.00,VWS V14.00,2013-07-05 22:38:00,
2013-07-05 18:39:00,82.0,64.8,29.98,SW,227,1.0,7.0,56,0.00,,BKN220,0.00,VWS V14.00,2013-07-05 22:39:00,
2013-07-05 18:44:00,81.7,64.5,29.98,SSW,203,1.0,7.0,56,0.00,,BKN220,0.00,VWS V14.00,2013-07-05 22:44:00,
2013-07-05 18:49:00,81.4,65.2,29.98,SSW,202,0.0,7.0,58,0.00,,BKN220,0.00,VWS V14.00,2013-07-05 22:49:00,
2013-07-05 18:50:00,81.2,64.5,29.98,SSW,203,3.0,7.0,57,0.00,,BKN220,0.00,VWS V14.00,2013-07-05 22:50:00,
2013-07-05 18:55:00,80.7,65.1,29.99,South,182,3.0,7.0,59,0.00,,BKN220,0.00,VWS V14.00,2013-07-05 22:55:00,
2013-07-05 19:00:00,80.6,65.4,29.98,SSW,207,1.0,4.0,60,0.00,,SCT220,0.00,VWS V14.00,2013-07-05 23:00:00,
2013-07-05 19:05:00,80.2,65.1,29.98,SSW,203,1.0,6.0,60,0.00,,SCT220,0.00,VWS V14.00,2013-07-05 23:05:00,
2013-07-05 19:10:00,80.0,65.4,29.98,SSW,213,2.0,6.0,61,0.00,,SCT220,0.00,VWS V14.00,2013-07-05 23:10:00,
2013-07-05 19:15:00,80.3,66.1,29.98,SSW,202,3.0,6.0,62,0.00,,SCT220,0.00,VWS V14.00,2013-07-05 23:15:00,
2013-07-05 19:20:00,80.4,64.8,29.98,SSW,205,4.0,7.0,59,0.00,,SCT220,0.00,VWS V14.00,2013-07-05 23:20:00,
2013-07-05 19:25:00,80.3,65.2,29.98,SSW,205,3.0,7.0,60,0.00,,SCT220,0.00,VWS V14.00,2013-07-05 23:25:00,
2013-07-05 19:30:00,80.0,65.8,29.98,SSW,207,1.0,3.0,62,0.00,,SCT220,0.00,VWS V14.00,2013-07-05 23:30:00,
2013-07-05 19:35:00,79.6,65.0,29.98,SSW,205,0.0,5.0,61,0.00,,SCT220,0.00,VWS V14.00,2013-07-05 23:35:00,
2013-07-05 19:40:00,79.1,65.4,29.98,SSW,206,1.0,5.0,63,0.00,,SCT220,0.00,VWS V14.00,2013-07-05 23:40:00,
2013-07-05 19:42:00,78.9,65.7,29.98,SSW,206,2.0,5.0,64,0.00,,SCT220,0.00,VWS V14.00,2013-07-05 23:42:00,
2013-07-05 19:47:00,78.4,65.7,29.98,SSW,206,0.0,5.0,65,0.00,,SCT220,0.00,VWS V14.00,2013-07-05 23:47:00,
2013-07-05 19:52:00,78.1,65.4,29.98,SSW,206,0.0,5.0,65,0.00,,SCT220,0.00,VWS V14.00,2013-07-05 23:52:00,
2013-07-05 19:57:00,77.8,65.5,29.98,SSW,205,0.0,5.0,66,0.00,,SCT220,0.00,VWS V14.00,2013-07-05 23:57:00,
2013-07-05 20:00:00,80.6,65.0,29.98,South,186,0.0,7.0,59,0.00,,OVC120,0.00,VWS V14.00,2013-07-06 00:00:00,
2013-07-05 20:02:00,77.6,65.3,29.98,SSW,206,0.0,1.0,66,0.00,,SCT220,0.00,VWS V14.00,2013-07-06 00:02:00,
2013-07-05 20:07:00,77.6,65.3,29.98,SSW,205,0.0,4.0,66,0.00,,SCT220,0.00,VWS V14.00,2013-07-06 00:07:00,
2013-07-05 20:12:00,77.5,64.8,29.98,SSW,205,1.0,4.0,65,0.00,,SCT220,0.00,VWS V14.00,2013-07-06 00:12:00,
2013-07-05 20:17:00,77.4,65.2,29.98,SSW,205,0.0,4.0,66,0.00,,SCT220,0.00,VWS V14.00,2013-07-06 00:17:00,
2013-07-05 20:22:00,77.2,65.4,29.98,SSW,205,0.0,4.0,67,0.00,,SCT220,0.00,VWS V14.00,2013-07-06 00:22:00,
2013-07-05 20:27:00,76.9,65.5,29.98,SSW,205,0.0,4.0,68,0.00,,SCT220,0.00,VWS V14.00,2013-07-06 00:27:00,
2013-07-05 20:30:00,80.0,65.4,29.98,SSW,206,0.0,7.0,61,0.00,,OVC120,0.00,VWS V14.00,2013-07-06 00:30:00,
2013-07-05 20:32:00,76.7,65.8,29.98,SSW,205,0.0,0.0,69,0.00,,SCT220,0.00,VWS V14.00,2013-07-06 00:32:00,
2013-07-05 20:37:00,76.4,65.9,29.98,SSW,205,0.0,0.0,70,0.00,,SCT220,0.00,VWS V14.00,2013-07-06 00:37:00,
2013-07-05 20:42:00,76.1,66.0,29.99,SSW,205,0.0,0.0,71,0.00,,SCT220,0.00,VWS V14.00,2013-07-06 00:42:00,
2013-07-05 20:47:00,75.7,65.6,29.99,SSW,205,0.0,0.0,71,0.00,,SCT220,0.00,VWS V14.00,2013-07-06 00:47:00,
2013-07-05 20:52:00,75.4,65.3,29.99,SSW,205,0.0,0.0,71,0.00,,SCT220,0.00,VWS V14.00,2013-07-06 00:52:00,
2013-07-05 20:57:00,75.1,65.9,29.99,SSW,205,0.0,0.0,73,0.00,,SCT220,0.00,VWS V14.00,2013-07-06 00:57:00,
2013-07-05 20:58:00,75.0,65.4,29.99,SSW,205,0.0,0.0,72,0.00,,SCT220,0.00,VWS V14.00,2013-07-06 00:58:00,
2013-07-05 21:00:00,77.7,65.4,29.98,SSW,206,0.0,5.0,66,0.00,,OVC120,0.00,VWS V14.00,2013-07-06 01:00:00,
2013-07-05 21:03:00,74.6,65.8,29.99,SSW,205,0.0,0.0,74,0.00,,SCT220,0.00,VWS V14.00,2013-07-06 01:03:00,
2013-07-05 21:08:00,74.0,65.2,29.99,SSW,205,0.0,0.0,74,0.00,,SCT220,0.00,VWS V14.00,2013-07-06 01:08:00,
2013-07-05 21:13:00,73.5,65.1,29.99,SSW,205,0.0,0.0,75,0.00,,SCT220,0.00,VWS V14.00,2013-07-06 01:13:00,
2013-07-05 21:18:00,73.1,65.1,29.99,SSW,205,0.0,0.0,76,0.00,,SCT220,0.00,VWS V14.00,2013-07-06 01:18:00,
2013-07-05 21:23:00,72.7,65.1,29.99,SSW,205,0.0,0.0,77,0.00,,SCT220,0.00,VWS V14.00,2013-07-06 01:23:00,
2013-07-05 21:28:00,72.4,64.8,30.00,SSW,205,0.0,0.0,77,0.00,,SCT220,0.00,VWS V14.00,2013-07-06 01:28:00,
2013-07-05 21:30:00,76.8,65.9,29.98,SSW,205,0.0,4.0,69,0.00,,OVC120,0.00,VWS V14.00,2013-07-06 01:30:00,
2013-07-05 21:33:00,72.0,65.5,30.00,SSW,205,0.0,0.0,80,0.00,,SCT220,0.00,VWS V14.00,2013-07-06 01:33:00,
2013-07-05 21:38:00,71.4,64.9,30.00,SSW,205,0.0,0.0,80,0.00,,SCT220,0.00,VWS V14.00,2013-07-06 01:38:00,
2013-07-05 21:43:00,71.1,65.0,30.00,SSW,205,0.0,0.0,81,0.00,,SCT220,0.00,VWS V14.00,2013-07-06 01:43:00,
2013-07-05 21:48:00,70.7,64.6,30.00,SSW,205,0.0,0.0,81,0.00,,SCT220,0.00,VWS V14.00,2013-07-06 01:48:00,
2013-07-05 21:53:00,70.4,64.7,30.00,SSW,205,0.0,0.0,82,0.00,,SCT220,0.00,VWS V14.00,2013-07-06 01:53:00,
2013-07-05 21:58:00,70.2,64.4,30.00,SSW,205,0.0,0.0,82,0.00,,SCT220,0.00,VWS V14.00,2013-07-06 01:58:00,
2013-07-05 22:00:00,74.8,65.6,29.99,SSW,205,0.0,0.0,73,0.00,,OVC120,0.00,VWS V14.00,2013-07-06 02:00:00,
2013-07-05 22:03:00,69.8,64.4,30.00,SSW,205,0.0,0.0,83,0.00,,SCT220,0.00,VWS V14.00,2013-07-06 02:03:00,
2013-07-05 22:08:00,69.4,64.4,30.01,SSW,205,0.0,0.0,84,0.00,,SCT220,0.00,VWS V14.00,2013-07-06 02:08:00,
2013-07-05 22:14:00,69.1,64.7,30.01,SSW,205,0.0,0.0,86,0.00,,SCT220,0.00,VWS V14.00,2013-07-06 02:14:00,
2013-07-05 22:19:00,68.7,64.3,30.01,SSW,205,0.0,0.0,86,0.00,,SCT220,0.00,VWS V14.00,2013-07-06 02:19:00,
2013-07-05 22:24:00,68.4,64.4,30.01,SSW,205,0.0,0.0,87,0.00,,SCT220,0.00,VWS V14.00,2013-07-06 02:24:00,
2013-07-05 22:29:00,68.1,64.1,30.01,SSW,205,0.0,0.0,87,0.00,,SCT220,0.00,VWS V14.00,2013-07-06 02:29:00,
2013-07-05 22:30:00,72.2,65.3,30.00,SSW,205,0.0,0.0,79,0.00,,OVC120,0.00,VWS V14.00,2013-07-06 02:30:00,
2013-07-05 22:33:00,68.0,64.0,30.01,SSW,205,0.0,0.0,87,0.00,,SCT220,0.00,VWS V14.00,2013-07-06 02:33:00,
2013-07-05 22:39:00,68.0,64.0,30.01,SSW,205,0.0,0.0,87,0.00,,SCT220,0.00,VWS V14.00,2013-07-06 02:39:00,
2013-07-05 22:44:00,67.9,63.9,30.01,SSW,205,0.0,0.0,87,0.00,,SCT220,0.00,VWS V14.00,2013-07-06 02:44:00,
2013-07-05 22:49:00,67.7,64.0,30.01,SSW,205,0.0,0.0,88,0.00,,SCT220,0.00,VWS V14.00,2013-07-06 02:49:00,
2013-07-05 22:54:00,67.5,64.2,30.01,SSW,205,0.0,0.0,89,0.00,,SCT220,0.00,VWS V14.00,2013-07-06 02:54:00,
2013-07-05 22:59:00,67.2,63.8,30.01,SSW,205,0.0,0.0,89,0.00,,SCT220,0.00,VWS V14.00,2013-07-06 02:59:00,
2013-07-05 23:00:00,70.1,64.7,30.00,SSW,205,0.0,0.0,83,0.00,,OVC120,0.00,VWS V14.00,2013-07-06 03:00:00,
2013-07-05 23:04:00,67.0,63.7,30.01,SSW,205,0.0,0.0,89,0.00,,SCT220,0.00,VWS V14.00,2013-07-06 03:04:00,
2013-07-05 23:05:00,67.0,64.0,30.01,SSW,205,0.0,0.0,90,0.00,,SCT220,0.00,VWS V14.00,2013-07-06 03:05:00,
2013-07-05 23:10:00,66.8,63.8,30.01,SSW,205,0.0,0.0,90,0.00,,SCT220,0.00,VWS V14.00,2013-07-06 03:10:00,
2013-07-05 23:15:00,66.6,63.6,30.01,SSW,205,0.0,0.0,90,0.00,,SCT220,0.00,VWS V14.00,2013-07-06 03:15:00,
2013-07-05 23:20:00,66.4,63.4,30.01,SSW,205,0.0,0.0,90,0.00,,SCT220,0.00,VWS V14.00,2013-07-06 03:20:00,
2013-07-05 23:25:00,66.2,63.5,30.01,SSW,205,0.0,0.0,91,0.00,,SCT220,0.00,VWS V14.00,2013-07-06 03:25:00,
2013-07-05 23:30:00,66.1,63.4,30.01,SSW,205,0.0,0.0,91,0.00,,SCT220,0.00,VWS V14.00,2013-07-06 03:30:00,
2013-07-05 23:35:00,65.9,63.5,30.01,SSW,205,0.0,0.0,92,0.00,,SCT220,0.00,VWS V14.00,2013-07-06 03:35:00,
2013-07-05 23:40:00,65.9,63.5,30.01,SSW,205,0.0,0.0,92,0.00,,SCT220,0.00,VWS V14.00,2013-07-06 03:40:00,
2013-07-05 23:45:00,65.8,63.7,30.01,SSW,205,0.0,0.0,93,0.00,,SCT220,0.00,VWS V14.00,2013-07-06 03:45:00,
2013-07-05 23:49:00,65.7,63.6,30.01,SSW,205,0.0,0.0,93,0.00,,SCT220,0.00,VWS V14.00,2013-07-06 03:49:00,
2013-07-05 23:53:00,65.5,63.4,30.01,SSW,205,0.0,0.0,93,0.00,,SCT220,0.00,VWS V14.00,2013-07-06 03:53:00,
2013-07-05 23:58:00,65.4,63.3,30.01,SSW,205,0.0,0.0,93,0.00,,SCT220,0.00,VWS V14.00,2013-07-06 03:58:00,